Location: Clover
(42.5131°N, 114.6874°W)
Time: 12:51:51
(UTC+00:00)

Explorer 7 - Pass Details

Date: 17 December 2025
Orbit: 433 x 550 km, 50.2° (Epoch: 13 January)

Event Time Altitude Azimuth Distance (km) Brightness Sun altitude
Rises 01:19:41 0° 274° (W) 2,473 11.5 -12.9°
Reaches altitude 10° 01:22:05 10° 287° (WNW) 1,582 10.0 -13.3°
Maximum altitude 01:25:09 27° 347° (NNW) 893 7.8 -13.9°
Enters shadow 01:26:44 19° 29° (NNE) 1,111 8.0 -14.1°
